This demonstration page uses our WeatherBlox Daily Observations layout. Learn more.

Left ArrowRight Arrow

Hourly Observations for March 24, 2022

Temp ( °F °C ) Dew Point ( °F °C ) Humidity (%) Winds ( mph kmh ) Pressure ( in mb ) Visibility ( mi km ) Precip ( " mm )
12:53 am 00:53 Clear 40 4.4 10 -12.2 29 29 N 8 13 30.06 1018 10 16 0.00 0.00
1:53 am 01:53 Clear 36 2.2 10 -12.2 34 34 N 8 13 30.07 1018 10 16 0.00 0.00
2:53 am 02:53 Clear 36 2.2 11 -11.7 35 35 N 5 7 30.06 1018 10 16 0.00 0.00
3:53 am 03:53 Clear 33 0.6 10 -12.2 38 38 Calm 30.05 1018 10 16 0.00 0.00
4:53 am 04:53 Clear 31 -0.6 9 -12.8 40 40 NW 5 7 30.05 1018 10 16 0.00 0.00
5:53 am 05:53 Clear 30 -1.1 7 -13.9 38 38 N 3 6 30.06 1018 10 16 0.00 0.00
6:53 am 06:53 Clear 29 -1.7 7 -13.9 39 39 NNE 3 6 30.07 1018 10 16 0.00 0.00
7:53 am 07:53 Sunny 26 -3.3 5 -15 40 40 N 8 13 30.08 1019 10 16 0.00 0.00
8:53 am 08:53 Sunny 33 0.6 9 -12.8 36 36 N 5 7 30.09 1019 10 16 0.00 0.00
9:53 am 09:53 Sunny 44 6.7 10 -12.2 25 25 NW 3 6 30.09 1019 10 16 0.00 0.00
10:53 am 10:53 Sunny 55 12.8 15 -9.4 20 20 W 9 15 30.08 1019 10 16 0.00 0.00
11:53 am 11:53 Sunny 64 17.8 16 -8.9 15 15 W 15 24 30.05 1018 10 16 0.00 0.00
12:53 pm 12:53 Sunny 68 20 14 -10 12 12 NW 15 24 30.03 1017 10 16 0.00 0.00
1:53 pm 13:53 Sunny 71 21.7 11 -11.7 10 10 W 14 22 30.01 1016 10 16 0.00 0.00
2:53 pm 14:53 Sunny 74 23.3 8 -13.3 8 8 WNW 13 20 29.98 1015 10 16 0.00 0.00
3:53 pm 15:53 Sunny 74 23.3 5 -15 7 7 WSW 8 13 29.95 1014 10 16 0.00 0.00
4:53 pm 16:53 Sunny 75 23.9 4 -15.6 6 6 NW 9 15 29.93 1014 10 16 0.00 0.00
5:53 pm 17:53 Sunny 76 24.4 2 -16.7 5 5 W 9 15 29.92 1013 10 16 0.00 0.00
6:53 pm 18:53 Sunny 76 24.4 3 -16.1 6 6 VRB 3 6 29.92 1013 10 16 0.00 0.00
7:53 pm 19:53 Sunny 74 23.3 3 -16.1 6 6 Calm 29.93 1014 10 16 0.00 0.00
8:53 pm 20:53 Clear 67 19.4 4 -15.6 8 8 E 5 7 29.93 1014 10 16 0.00 0.00
9:53 pm 21:53 Clear 60 15.6 1 -17.2 9 9 E 3 6 29.95 1014 10 16 0.00 0.00
10:53 pm 22:53 Clear 56 13.3 2 -16.7 11 11 Calm 29.96 1015 10 16 0.00 0.00
11:53 pm 23:53 Clear 55 12.8 2 -16.7 11 11 S 5 7 29.96 1015 10 16 0.00 0.00

Powered by AerisWeather